Regional Weather Roundup
Issued by NWS

Home | Current Version | Previous Version | Text Only | Print | Product List | Glossary Off
Versions: 1 2 3 4 5 6 7 8 9 10 11 12 13 14 15 16 17 18 19 20 21 22 23 24 25 26 27 28 29 30 31 32 33 34 35 36 37 38 39 40 41 42 43 44 45 46 47 48 49 50

000
ASUS45 KBOU 210807
RWRCO

WEATHER ROUNDUP FOR COLORADO
NATIONAL WEATHER SERVICE DENVER/BOULDER CO
200 AM MDT THU MAY 21 2015

NOTE: "FAIR" INDICATES FEW OR NO CLOUDS BELOW 12000 FEET WITH NO
SIGNIFICANT WEATHER AND/OR OBSTRUCTIONS TO VISIBILITY.

COZ001>005-013-030-031-210900-
...NORTHWEST COLORADO...

CITY           SKY/WX    TMP DP  RH WIND       PRES   REMARKS
CRAIG          PTCLDY    39  36  89 CALM      30.12S
HAYDEN         PTCLDY    39  34  81 SE9       30.12F
MEEKER         CLEAR     41  36  82 NE6       30.11F
MOUNT WERNER   NOT AVBL
STEAMBOAT SPGS PTCLDY    38  36  92 CALM      30.15S
WALDEN         PTCLDY    34  32  93 SE5       30.20F WCI  30
$$

COZ006>008-011-210900-
...WEST CENTRAL VALLEYS...

CITY           SKY/WX    TMP DP  RH WIND       PRES   REMARKS
GRAND JUNCTION PTCLDY    47  42  83 E5        30.01S
MONTROSE       MOCLDY    49  38  65 SE9       30.08F
EAGLE          CLEAR     41  37  87 E6        30.16S
RIFLE          PTCLDY    44  38  79 CALM      30.08S
DELTA          MOCLDY    52  41  66 E5        30.05F
NUCLA          MOCLDY    52  34  50 SE7       30.10S
$$

COZ017>023-064>068-210900-
...SOUTHWEST COLORADO...

CITY           SKY/WX    TMP DP  RH WIND       PRES   REMARKS
DURANGO        MOCLDY    49  37  63 E9        30.12R
CORTEZ         CLEAR     49  40  71 E5        30.05F
PAGOSA SPRINGS MOCLDY    43  32  63 CALM      30.19S
TELLURIDE      CLOUDY    48  18  29 CALM      30.24F
WOLF CREEK PAS NOT AVBL
$$

COZ009-010-012-014-032>034-037-058>063-210900-
...CENTRAL COLORADO...

CITY           SKY/WX    TMP DP  RH WIND       PRES   REMARKS
ASPEN          CLEAR     35  30  82 SW5       30.16S WCI  31
BUENA VISTA    CLOUDY    41  37  86 SE6       30.26F
COPPER MTN     PTCLDY    34  27  75 S23       30.34S WCI  22
BERTHOUD PASS  FAIR      28  21  74 W10G16    30.36F WCI  19
COTTONWOOD PAS CLOUDY    36  34  93 SE6       30.31S
GUNNISON       PTCLDY    39  30  70 CALM      30.22S
KREMMLING      CLEAR     36  34  93 CALM      30.20S
LEADVILLE      CLOUDY    33  33 100 S8        30.28F WCI  26
SALIDA         CLOUDY    42  40  95 E6        30.34S
SUNLIGHT       CLEAR     36  30  80 CALM      30.32S
WILKERSON PASS FOG       30  30 100 SW5       30.36S VSB 1/2 WCI  25
$$

COZ069>075-210900-
...SAN LUIS VALLEY/SANGRE DE CRISTO MOUNTAINS...

CITY           SKY/WX    TMP DP  RH WIND       PRES   REMARKS
ALAMOSA        CLOUDY    45  36  70 SE13      30.19S
LA VETA PASS   FOG      N/A N/A N/A MISG      30.33S VSB 1/2
SAGUACHE       PTCLDY    39  34  81 N5        30.22S
$$

COZ035-036-038>040-210900-
...NORTHERN COLORADO FRONT RANGE...

CITY           SKY/WX    TMP DP  RH WIND       PRES   REMARKS
DENVER INTL AP DRIZZLE   40  39  97 E10       30.26F
DMNS CITY PARK   N/A     41  38  89 E6        30.26S
AURORA         CLOUDY    39  39  99 E7        30.26F
FRONT RANGE AP CLOUDY    41  41 100 E8        30.27F
ERIE MUNI ARPT CLOUDY    42  41  95 SE5       30.26F
BOULDER MUN AP DRIZZLE   41  41 100 CALM      30.26F
CENTENNIAL     CLOUDY    39  37  92 E6        30.25F
BROOMFIELD     CLOUDY    41  41 100 E5        30.26F
FORT COLLINS   CLOUDY    41  37  87 SE6       30.28F
LONGMONT       CLOUDY    44  42  93 CALM      30.28F FOG
$$

COZ041-046-047-076>085-087-088-210900-
...PIKES PEAK/PALMER DIVIDE AND SOUTHERN FOOTHILLS...

CITY           SKY/WX    TMP DP  RH WIND       PRES   REMARKS
COLO. SPRINGS  LGT RAIN  40  40 100 SE14      30.28F VSB 1
A. F. ACADEMY  CLOUDY    39  39 100 SE15      30.27S
ELLICOTT       NOT AVBL
FALCON         MIX PCPN  37  37 100 SE13      30.29S VSB 3/4
FORT CARSON    DRIZZLE   41 N/A N/A SE13      30.27F
LIMON          CLOUDY    38  37  97 SE12      30.30R FOG
MONUMENT HILL    N/A     36  36 100 MISG      30.26F
TRINIDAD       CLOUDY    46  44  93 NW6       30.24F
$$

COZ042>045-048>051-090-091-210900-
...NORTHEAST COLORADO...

CITY           SKY/WX    TMP DP  RH WIND       PRES   REMARKS
GREELEY ARPT   CLOUDY    43  37  81 SE10      30.28F
AKRON          CLOUDY    40  36  86 S7        30.29F
BURLINGTON     CLOUDY    41  36  82 SE5       30.29F
WRAY           CLOUDY    45  40  83 CALM      30.31S
STERLING       CLOUDY    43  37  81 CALM      30.29S
HOLYOKE        NOT AVBL
FORT MORGAN    CLOUDY    41  36  81 SE7       30.30S
$$

COZ086-089-092>099-210900-
...SOUTHEAST COLORADO...

CITY           SKY/WX    TMP DP  RH WIND       PRES   REMARKS
PUEBLO         CLOUDY    43  43 100 E14       30.27F FOG
LA JUNTA       CLOUDY    44  41  89 E17       30.29F FOG
LAMAR          CLOUDY    45  40  82 SE6       30.29R
SPRINGFIELD      N/A     40  40 100 SE12      30.30F
$$



USA.gov is the U.S. government's official web portal to all federal, state and local government web resources and services.